Estación de Linares 2
Ultimos registro cada 15 minutos 20
| N° | Estación | Fecha / Hora | Temperatura | Humedad | Lluvia | Velocidad | Dirección | Radiación | Presion |
| 20 | Linares 2 | 03-09-2026 17:45 | 4 | 93 | 0 | 0,9 | 150 | 185 | 1025,6 |
| 19 | Linares 2 | 03-09-2026 17:30 | 3,8 | 94 | 0 | 0 | 232 | 121 | 1025,7 |
| 18 | Linares 2 | 03-09-2026 17:15 | 3,6 | 93 | 0 | 0,4 | 139 | 174 | 1025,5 |
| 17 | Linares 2 | 03-09-2026 17:00 | 3,4 | 93 | 0 | 0 | 203 | 135 | 1025,7 |
| 16 | Linares 2 | 03-09-2026 16:45 | 3,4 | 93 | 0 | 0,4 | 231 | 118 | 1025,8 |
| 15 | Linares 2 | 03-09-2026 16:30 | 3,3 | 93 | 0 | 0 | 270 | 121 | 1025,6 |
| 14 | Linares 2 | 03-09-2026 16:15 | 3,2 | 93 | 0 | 0 | 241 | 98 | 1025,5 |
| 13 | Linares 2 | 03-09-2026 16:00 | 3,3 | 94 | 0 | 0 | 185 | 77 | 1025,5 |
| 12 | Linares 2 | 03-09-2026 04:00 | 17,3 | 55 | 0 | 1,3 | 212 | 446 | 1023 |
| 11 | Linares 2 | 03-09-2026 03:45 | 17,6 | 55 | 0 | 2,2 | 180 | 485 | 1023,2 |
| 10 | Linares 2 | 03-09-2026 03:30 | 17,5 | 56 | 0 | 0,9 | 161 | 519 | 1023,2 |
| 9 | Linares 2 | 03-09-2026 03:15 | 17,2 | 60 | 0 | 0,4 | 238 | 554 | 1023,2 |
| 8 | Linares 2 | 03-09-2026 03:00 | 17,1 | 58 | 0 | 2,7 | 165 | 582 | 1023,3 |
| 7 | Linares 2 | 03-09-2026 01:30 | 16,3 | 64 | 0 | 0,9 | 235 | 686 | 1024,5 |
| 6 | Linares 2 | 03-09-2026 01:15 | 16,2 | 62 | 0 | 0,9 | 159 | 705 | 1024,7 |
| 5 | Linares 2 | 03-09-2026 01:00 | 15,7 | 62 | 0 | 2,7 | 150 | 703 | 1024,6 |
| 4 | Linares 2 | 03-09-2026 00:45 | 15,3 | 65 | 0 | 1,3 | 245 | 694 | 1024,8 |
| 3 | Linares 2 | 03-09-2026 00:30 | 15,1 | 66 | 0 | 3,6 | 163 | 700 | 1025 |
| 2 | Linares 2 | 03-09-2026 00:15 | 14,9 | 64 | 0 | 1,3 | 240 | 693 | 1025 |
| 1 | Linares 2 | 03-09-2026 00:00 | 14,3 | 70 | 0 | 0,4 | 204 | 677 | 1025,1 |